SCP
0 0 1 1 1 1 1 1 1 1 1 1 1 1 1 0 0 0 0 0 0 0 0 0 0 0 0 0 0 0 0 0 0 0 0 0 0 0 0 0 0 0 0
0 0 1 1 1 1 1 1 1 1 1 1 1 1 1 0 0 0 0 0 0 0 0 0 0 0 0 0 0 0 0 0 0 0 0 0 0 0 0 0 0 0 0
0 0 1 1 1 1 1 1 1 1 1 1 1 1 1 0 0 0 0 0 0 0 0 0 0 0 0 0 0 0 0 0 0 0 0 0 0 0 0 0 0 0 0
0 0 1 1 1 1 1 1 1 1 1 1 1 0 0 0 0 0 0 0 0 0 0 0 0 0 0 0 0 0 0 0 0 0 0 0 0 0 0 0 0 0 0
0 0 1 1 1 1 1 1 1 1 0 0 0 0 0 0 0 0 0 0 0 0 0 0 0 0 0 0 0 0 0 0 0 0 0 0 0 0 0 0 0 0 0
0 0 0 1 1 1 1 1 1 0 0 0 0 0 0 0 0 0 0 0 0 0 0 0 0 0 0 0 0 0 0 0 0 0 0 0 0 0 0 0 0 0 0
0 0 0 0 1 1 1 1 1 1 0 0 0 0 0 0 0 0 0 0 0 0 0 0 0 0 0 0 0 0 0 0 0 0 0 0 0 0 0 0 0 0 0
1 0 0 0 0 1 1 1 1 1 1 0 0 0 0 0 0 0 0 0 0 0 0 0 0 0 0 0 0 0 0 0 0 0 0 0 0 0 0 0 0 0 0
1 1 0 0 0 0 1 1 1 1 1 0 0 0 0 0 0 0 0 0 0 0 0 0 0 0 0 0 0 0 0 0 0 0 0 0 0 0 0 0 0 0 0
1 1 1 0 0 0 0 1 1 0 0 0 0 0 0 0 0 0 0 0 0 0 0 0 0 0 0 0 0 0 0 0 0 0 0 0 0 0 0 0 0 0 0
0 1 1 1 1 0 0 1 1 1 0 0 0 0 0 0 0 0 0 0 0 0 0 0 0 0 0 0 0 0 0 0 0 0 0 0 0 0 0 0 0 0 0
0 0 1 1 1 1 1 1 1 1 1 1 1 1 0 0 0 0 0 0 0 0 0 0 0 0 0 0 0 0 0 0 0 0 0 0 0 0 0 0 0 0 0
0 0 0 0 0 1 1 1 1 1 1 1 1 1 1 0 0 0 0 0 0 0 0 0 0 0 0 0 0 0 0 0 0 0 0 0 0 0 0 0 0 0 0
0 0 0 0 0 0 0 1 1 1 1 1 1 1 1 0 0 0 0 0 0 0 0 0 0 0 0 0 0 0 0 0 0 0 0 0 0 0 0 0 0 0 0
0 0 0 0 0 0 0 0 1 1 1 1 1 1 1 0 0 0 0 0 0 0 0 0 0 0 0 0 0 0 0 0 0 0 0 0 0 0 0 0 0 0 0
1 1 1 0 0 0 0 0 1 1 1 1 1 1 1 0 0 0 0 0 0 0 0 0 0 0 0 0 0 0 0 0 0 0 0 0 0 0 0 0 0 0 0
1 1 1 1 1 0 0 0 0 1 1 1 1 0 0 0 0 0 0 0 0 0 0 0 0 0 0 0 0 0 0 0 0 0 0 0 0 0 0 0 0 0 0
2 1 1 1 1 1 1 1 0 0 1 1 1 1 1 0 0 0 0 0 0 0 0 0 0 0 0 0 0 0 0 0 0 0 0 0 0 0 0 0 0 0 0
1 1 1 1 1 1 1 1 1 1 1 1 1 1 1 1 1 1 1 0 0 0 0 0 0 0 0 0 0 0 0 0 0 0 0 0 0 0 0 0 0 0 0
1 1 1 1 1 1 1 1 1 1 1 1 1 1 1 1 1 1 1 1 1 0 0 0 0 0 0 0 0 0 0 0 0 0 0 0 0 0 0 0 0 0 0
0 1 1 1 1 1 1 1 1 1 1 1 2 2 1 1 1 1 1 1 1 1 0 0 0 0 0 0 0 0 0 0 0 0 0 0 0 0 0 0 0 0 0
0 1 1 1 1 1 1 1 1 1 1 2 2 2 2 2 2 1 1 1 1 1 1 0 0 0 0 0 0 0 0 0 0 0 0 0 0 0 0 0 0 0 0
0 1 1 1 1 1 1 1 1 1 1 2 1 1 1 1 2 1 1 1 1 1 1 1 1 1 0 0 0 0 0 0 0 0 0 0 0 0 0 0 0 0 0
0 1 1 1 1 1 1 1 1 1 1 1 1 1 1 1 1 1 1 1 1 1 1 1 1 1 0 0 0 0 0 0 0 0 0 0 0 0 0 0 0 0 0
0 1 1 1 1 1 1 1 1 1 1 1 1 1 1 1 0 1 1 1 1 1 1 1 1 1 0 0 0 0 0 0 0 0 0 0 0 0 0 0 0 0 0
0 1 1 1 0 1 1 1 1 1 1 1 1 1 1 1 0 0 0 0 0 0 0 0 0 0 0 0 0 0 0 0 0 0 0 0 0 0 0 0 0 0 0
Wind_Speed
5 8 9 9 9 9 9 9 9 9 8 9 9 9 10 9 9 9 9 9 10 10 10 10 10 10 11 11 10 10 10 10 10 9 9 9 9 10 9 8 6 7 9
7 9 9 8 9 9 9 9 9 8 9 8 9 9 9 9 9 9 9 9 9 10 10 9 9 9 10 9 9 9 8 8 8 8 6 7 8 8 8 7 6 6 7
8 9 10 8 9 9 9 9 8 8 9 8 8 9 9 9 9 9 9 9 9 9 9 9 9 9 9 8 8 7 7 7 7 5 1 3 6 7 6 6 6 6 6
9 9 9 8 8 9 9 8 8 8 8 8 8 9 8 8 9 9 9 8 8 9 9 9 9 9 8 7 6 6 6 6 5 2 1 3 4 6 5 5 4 4 4
8 8 9 8 8 8 8 8 8 8 8 8 8 8 8 8 8 8 8 8 8 8 8 8 8 8 7 7 7 6 5 5 3 1 2 2 2 4 3 3 3 3 3
8 7 9 7 8 8 8 7 7 8 8 7 7 7 7 7 7 7 7 7 7 7 7 7 7 7 6 6 6 5 4 3 2 0 1 1 1 3 2 1 1 1 1
8 7 8 7 7 7 7 7 7 7 7 6 7 6 7 7 6 6 6 6 5 5 5 5 6 5 5 5 4 4 4 3 3 2 1 1 1 2 2 2 2 2 2
6 6 6 6 5 5 5 5 5 6 6 5 5 5 6 6 5 5 5 5 4 4 4 4 4 4 3 3 3 3 3 3 2 2 2 2 2 3 4 4 4 4 4
6 5 4 5 5 4 4 4 4 4 5 5 4 5 4 4 4 4 4 3 3 3 2 3 3 2 2 2 2 2 2 3 5 2 3 2 3 5 5 5 5 5 5
5 4 4 3 3 4 4 4 4 4 4 4 4 3 3 3 3 3 2 2 2 2 1 1 1 1 0 1 1 1 1 4 3 3 2 2 4 6 7 7 7 7 7
4 3 2 2 2 2 3 3 3 3 4 3 3 3 2 2 2 2 1 1 1 0 0 0 0 1 2 2 1 2 3 3 4 3 3 2 6 7 8 8 8 8 8
2 1 1 1 2 2 1 2 2 2 2 2 1 1 1 0 1 1 1 0 1 1 2 2 2 3 4 3 2 3 3 4 4 3 2 3 7 8 9 9 9 9 9
2 1 1 1 1 1 1 1 1 1 1 1 0 0 0 0 1 1 1 1 2 3 3 2 3 3 3 3 3 3 4 4 3 4 3 3 8 9 10 10 10 10 9
1 1 1 0 1 1 1 1 1 1 1 0 0 0 1 1 1 1 1 2 2 2 3 3 3 3 4 5 5 5 5 4 4 4 3 4 8 10 10 11 11 10 10
1 1 1 0 0 0 1 1 1 1 1 1 1 1 1 1 1 1 1 1 2 2 3 3 4 4 5 5 5 6 6 6 6 6 4 5 7 9 11 10 11 11 11
2 2 1 1 0 0 0 1 1 1 1 1 1 1 2 2 2 2 2 2 2 2 3 3 5 5 5 5 6 6 7 7 7 7 6 5 6 8 10 10 11 11 11
3 2 2 1 1 1 0 1 1 1 1 1 1 2 2 2 3 3 2 2 2 3 3 3 4 4 4 5 6 7 6 7 7 7 7 6 5 5 7 9 10 10 10
3 3 2 2 2 2 1 1 1 1 1 1 2 2 2 3 3 2 2 3 3 3 2 3 4 4 4 5 5 5 5 5 7 7 6 6 5 5 4 6 8 9 9
3 3 3 3 3 2 2 1 2 2 2 2 2 2 3 3 3 2 2 3 3 2 2 3 3 4 5 5 5 5 6 6 6 6 6 6 5 5 5 4 4 6 8
3 3 3 3 3 2 2 2 2 2 2 2 2 3 4 3 4 3 2 3 3 3 3 3 4 4 4 5 6 6 6 5 5 4 5 5 4 5 5 5 4 4 6
4 4 3 3 3 2 2 1 1 2 2 2 3 4 4 4 4 4 3 4 4 3 4 4 4 4 4 4 4 5 5 5 4 3 4 4 4 4 5 5 5 5 4
4 4 3 3 2 2 1 1 1 1 1 2 3 4 4 4 4 3 4 3 4 3 4 5 4 4 3 3 3 5 5 4 2 4 3 3 4 4 5 5 5 5 5
4 4 3 3 2 2 2 1 2 1 1 2 3 4 5 5 4 4 4 4 4 3 4 5 5 5 4 3 3 3 4 4 5 3 4 4 4 4 5 5 6 6 6
4 4 4 4 3 2 1 1 2 1 2 2 3 3 4 5 5 5 5 5 4 4 4 5 5 5 5 5 3 3 4 5 5 5 4 5 6 6 6 6 6 6 6
4 4 4 4 4 3 2 1 1 1 2 2 2 3 3 4 5 5 5 5 5 4 5 5 5 5 4 5 4 4 4 5 5 6 7 7 6 6 6 7 6 5 6
4 4 4 4 4 4 3 3 2 2 3 3 4 4 4 3 4 6 6 5 5 5 5 5 5 5 4 5 4 4 4 4 5 6 8 8 8 7 8 6 6 5 5
Wind_Direction
156 151 143 142 136 127 121 117 113 110 109 115 118 117 114 112 109 105 100 99 100 100 96 94 90 88 85 82 80 78 78 75 70 66 72 81 82 81 78 69 67 78 74
150 150 143 143 137 131 126 121 117 116 113 116 117 116 112 110 110 107 104 102 100 99 97 95 93 89 87 83 82 81 80 74 67 60 68 94 87 79 75 69 57 66 70
144 146 147 140 136 131 126 125 122 120 119 117 118 117 112 108 107 106 101 101 101 100 97 93 92 89 88 85 83 83 82 75 66 54 61 95 94 84 76 71 68 68 67
144 147 146 132 133 132 129 129 127 121 120 116 113 115 113 111 106 107 104 104 102 98 95 93 90 88 83 81 83 85 83 76 64 18 90 73 84 86 77 71 65 60 59
141 144 135 130 133 133 130 129 127 120 115 113 110 112 110 111 109 105 104 104 102 98 96 93 89 86 82 76 76 79 77 71 62 262 70 69 76 81 69 66 61 53 45
137 138 134 131 134 134 132 130 127 123 119 113 113 109 110 111 109 107 105 103 100 98 95 92 90 87 82 75 72 71 66 48 277 17 46 28 46 66 45 50 55 35 3
136 137 136 126 129 132 132 131 129 126 122 118 116 111 107 106 106 109 109 106 103 100 98 96 93 89 83 74 67 66 56 9 319 333 329 320 21 358 315 307 300 296 292
125 130 133 117 122 126 127 128 130 128 124 121 118 118 115 106 110 110 108 105 104 103 103 106 102 93 80 68 59 53 41 338 305 327 320 303 16 312 291 289 288 288 286
116 123 131 138 138 133 123 120 123 119 117 116 112 106 111 112 110 108 108 107 104 101 100 114 110 103 85 59 48 46 30 328 295 308 304 306 349 306 295 288 285 285 281
110 116 122 133 142 150 146 118 111 108 104 104 102 96 112 128 131 118 139 114 107 97 93 119 107 105 6 334 350 9 307 263 292 299 287 325 316 294 292 293 292 287 280
92 102 118 128 137 141 141 127 137 121 104 108 112 103 146 185 179 166 141 91 105 52 1 45 299 313 280 227 238 279 260 279 301 295 289 340 296 289 288 286 287 289 283
107 103 113 152 161 151 143 152 156 156 150 151 144 151 197 326 352 321 91 205 248 259 250 251 266 256 262 265 230 235 267 287 285 283 292 311 292 287 284 283 284 285 281
136 106 92 176 174 159 156 173 163 171 168 168 164 216 285 306 323 303 298 243 247 248 254 243 242 262 277 285 285 278 285 286 284 284 279 276 285 288 286 282 282 282 281
90 65 6 238 174 178 185 188 182 184 185 183 201 277 264 262 280 283 288 308 303 286 280 278 275 278 278 278 277 280 281 279 281 282 281 265 276 283 287 285 281 282 278
34 13 350 325 186 219 221 216 197 208 221 232 263 275 278 278 281 276 283 291 295 299 288 284 282 284 281 278 275 278 280 279 278 274 270 250 262 277 283 287 285 281 279
7 1 3 10 263 201 245 263 241 236 251 269 284 299 286 288 288 282 285 291 294 295 296 292 294 289 287 287 284 282 281 280 276 277 278 268 250 264 276 282 285 285 282
4 6 15 7 18 30 325 302 301 292 284 305 309 313 312 304 296 287 283 290 297 297 296 295 295 291 291 289 288 286 282 279 280 281 281 282 277 259 263 275 281 285 286
6 7 14 26 29 34 18 6 18 14 16 7 353 343 336 325 316 303 302 303 305 302 305 306 304 294 291 295 297 294 284 279 277 280 281 281 283 283 271 270 276 281 285
7 10 19 24 24 27 25 32 44 39 38 24 10 3 355 349 340 321 313 312 311 304 306 308 309 303 297 300 296 290 287 284 282 279 279 282 282 284 287 291 279 282 286
12 17 23 25 21 18 30 28 35 38 35 26 16 8 3 357 350 339 332 328 325 315 312 305 294 299 297 302 297 290 288 286 283 283 286 285 288 292 296 302 297 294 288
14 15 12 17 13 16 24 16 6 12 17 18 15 12 5 3 1 357 346 335 333 325 321 314 303 300 301 309 299 294 285 274 279 293 299 306 309 307 309 309 304 299 295
6 2 357 356 0 8 6 2 334 328 355 12 8 8 2 1 357 357 353 342 339 330 326 324 320 312 312 318 303 301 296 282 289 303 302 302 307 312 310 306 306 301 295
8 354 347 344 343 356 1 22 26 24 15 15 7 3 358 356 352 355 349 340 339 336 329 327 325 314 304 305 306 300 301 297 312 285 300 300 304 306 305 306 301 299 297
360 351 348 349 349 350 11 35 36 18 347 334 341 349 353 357 359 357 353 347 340 340 336 329 329 316 308 303 299 283 289 300 297 297 291 295 302 299 300 301 301 303 300
2 1 357 359 359 356 3 7 346 328 324 331 345 356 357 353 358 356 352 347 343 339 336 333 331 329 322 314 311 308 297 295 289 286 292 298 296 294 297 295 295 298 301
7 12 12 12 12 5 10 14 9 357 350 353 354 351 346 345 350 355 350 349 348 345 344 344 342 339 338 329 320 310 305 297 295 287 287 295 295 296 294 289 289 291 294